Temperature
8 8 8 8 8 8 8 8 8 7 7 8 8 8 8 7 7 7 7 7 7 7 7 7 7 7 7 7 7 7 7 7 7 7 6 6 6 6
7 7 7 7 7 7 7 7 7 7 7 7 7 7 7 7 7 7 7 7 7 7 7 7 7 7 7 6 6 6 6 6 6 6 6 6 6 6
7 7 7 7 7 7 7 7 7 7 7 7 7 7 7 6 6 6 6 6 6 6 6 6 6 6 6 6 6 6 6 6 6 6 6 5 5 5
6 6 6 6 6 6 7 7 7 6 6 6 6 6 6 6 6 6 6 6 5 5 5 6 6 6 6 6 5 5 5 5 5 5 5 5 5 4
6 6 6 6 6 6 6 6 6 6 6 6 6 6 6 5 5 5 5 5 5 5 5 5 5 5 5 5 5 5 5 5 5 4 4 4 4 4
6 5 5 5 6 6 6 6 5 5 5 5 5 5 5 5 5 5 5 5 4 4 4 4 4 4 4 4 4 4 4 4 4 4 4 4 4 3
5 5 5 5 5 5 5 5 5 5 5 5 5 4 4 4 4 4 4 4 4 4 4 4 4 4 4 4 4 4 4 3 3 3 3 3 3 3
5 5 5 5 5 5 4 4 4 4 4 4 4 4 4 4 4 3 3 3 3 3 3 3 3 3 3 3 3 3 3 3 3 3 3 3 2 2
4 4 4 4 4 4 4 4 4 4 4 3 3 3 3 3 3 3 3 2 2 2 2 3 3 3 3 3 3 2 2 2 2 2 2 2 2 2
4 4 4 4 4 4 4 3 3 3 3 3 3 2 2 2 2 2 2 2 2 2 2 2 2 2 2 2 2 2 2 2 2 2 2 1 1 1
3 3 3 3 3 3 3 3 3 3 2 2 2 2 2 2 2 1 1 1 1 1 1 1 1 1 2 2 2 1 1 1 1 1 1 1 1 1
2 2 2 2 2 2 2 2 2 2 2 2 2 1 1 1 1 1 1 1 1 0 0 0 0 0 0 1 1 1 1 1 1 1 0 0 0 0
2 2 2 2 1 1 1 2 2 2 1 1 1 1 1 1 1 1 0 0 -0 -0 -0 -1 -1 -1 -1 -1 0 0 0 0 0 0 -0 -0 -0 -0
1 1 1 1 1 1 1 1 1 1 1 0 0 0 0 0 0 0 0 -0 -0 -1 -1 -1 -1 -1 -2 -2 -1 -1 -1 -1 -1 -1 -1 -1 -1 -1
0 0 0 0 0 0 0 0 0 0 -0 -0 -0 -0 -0 -0 -0 -0 -1 -1 -1 -1 -1 -2 -2 -2 -2 -2 -2 -2 -2 -1 -1 -1 -1 -1 -1 -1
-0 -1 -1 -1 -0 -0 -0 -0 -0 -0 -1 -1 -1 -1 -1 -1 -1 -1 -1 -1 -1 -1 -2 -2 -2 -2 -3 -3 -3 -3 -3 -3 -2 -2 -2 -2 -2 -2
-1 -1 -1 -1 -1 -1 -1 -1 -1 -1 -1 -1 -1 -1 -1 -1 -2 -2 -2 -2 -2 -2 -2 -2 -3 -3 -3 -3 -3 -3 -3 -3 -3 -3 -3 -3 -2 -2
-2 -2 -2 -2 -2 -2 -2 -2 -2 -2 -2 -2 -2 -2 -2 -2 -2 -2 -3 -3 -3 -3 -3 -3 -3 -3 -3 -3 -4 -4 -4 -4 -4 -4 -4 -4 -3 -3
-2 -2 -2 -2 -2 -2 -2 -2 -2 -2 -2 -2 -2 -3 -3 -3 -3 -3 -3 -4 -4 -4 -4 -4 -4 -4 -5 -5 -4 -4 -4 -4 -4 -4 -4 -4 -4 -4
-3 -3 -3 -3 -3 -3 -3 -3 -3 -3 -3 -3 -3 -3 -3 -4 -4 -4 -4 -4 -4 -4 -4 -4 -5 -5 -5 -5 -5 -5 -5 -5 -5 -5 -5 -5 -4 -4
-3 -3 -3 -3 -3 -4 -4 -3 -4 -4 -4 -4 -4 -4 -4 -4 -4 -4 -5 -5 -5 -5 -5 -5 -5 -5 -6 -6 -6 -5 -5 -5 -6 -6 -6 -6 -5 -5
-4 -4 -4 -4 -4 -4 -4 -4 -4 -4 -4 -4 -4 -4 -5 -5 -5 -5 -5 -5 -5 -5 -5 -5 -5 -6 -6 -6 -6 -6 -6 -6 -6 -6 -6 -6 -7 -7
-4 -4 -4 -4 -4 -4 -5 -5 -5 -5 -5 -5 -5 -5 -5 -5 -5 -5 -5 -6 -6 -6 -6 -6 -6 -6 -6 -7 -7 -7 -7 -7 -6 -6 -6 -6 -7 -7
Wind_Speed
4 4 3 2 2 2 3 3 4 2 2 2 1 2 2 2 2 2 3 2 3 3 3 4 4 4 4 4 5 5 4 4 5 5 5 6 7 7
3 4 3 3 2 2 2 2 2 3 2 2 2 1 1 1 2 3 3 3 3 3 3 3 4 4 4 4 5 5 5 5 5 6 6 6 6 7
4 4 4 4 3 3 2 2 2 2 3 1 0 0 1 1 2 3 3 3 3 3 3 4 4 4 4 4 5 6 6 6 6 6 6 6 7 8
5 4 4 3 4 3 3 3 3 2 3 3 1 0 0 0 1 2 2 2 3 3 4 4 4 5 5 5 6 6 6 6 6 7 6 6 7 8
5 5 4 4 4 3 3 3 3 2 2 3 1 1 0 0 0 1 2 2 3 4 4 4 5 6 6 6 6 6 6 6 7 7 6 7 8 9
3 4 4 5 5 5 4 4 3 3 2 2 1 1 0 0 1 0 1 2 2 4 4 5 5 6 6 6 7 7 7 7 7 7 7 8 9 9
3 3 3 4 4 4 3 4 4 3 3 2 2 1 1 1 1 1 1 2 2 2 2 4 5 5 6 6 7 7 7 7 7 8 9 9 10 10
4 3 3 3 4 4 5 5 5 4 4 3 2 2 2 2 1 1 1 1 2 2 1 3 3 3 6 6 7 8 7 8 9 9 10 10 11 11
4 4 3 3 4 4 4 4 3 3 4 4 4 3 3 3 2 1 1 2 2 2 1 3 2 3 6 7 8 8 8 9 10 11 11 11 12 12
4 4 5 4 4 5 5 4 2 1 2 2 3 3 2 3 3 2 2 1 1 1 1 2 3 3 6 8 8 8 9 10 11 12 12 12 12 13
3 4 5 4 6 7 6 5 3 1 2 3 3 3 2 2 3 2 1 0 2 2 1 1 2 3 4 4 7 9 10 11 12 12 12 12 12 12
3 3 5 5 6 7 5 5 4 2 2 2 2 2 2 2 2 2 2 2 1 2 1 1 1 2 3 3 5 7 8 10 11 12 12 13 13 10
4 3 3 6 6 6 5 4 5 4 3 3 2 1 2 1 1 1 1 2 2 3 2 1 1 1 2 4 4 5 6 7 9 10 12 13 12 10
4 3 4 6 5 5 4 5 5 4 3 3 2 1 0 0 1 1 1 2 3 4 4 3 2 2 3 5 5 4 6 8 8 8 10 12 12 12
3 5 5 5 4 3 4 5 4 3 3 2 2 2 1 1 0 0 0 1 1 3 4 4 3 3 3 5 5 5 5 5 6 6 7 8 8 8
4 5 5 5 3 3 3 2 2 3 3 3 2 1 1 0 0 1 1 1 1 2 3 5 5 4 4 5 6 7 5 4 4 6 7 8 9 10
4 3 2 2 2 2 1 1 2 2 2 2 2 1 1 1 1 1 1 1 2 3 3 2 4 6 7 5 6 7 6 6 6 6 6 7 7 9
4 3 3 3 3 2 2 1 1 1 2 2 2 2 1 1 1 1 1 2 3 3 3 3 2 3 3 4 8 7 6 6 5 6 5 7 8 7
3 3 3 3 2 2 2 2 2 1 1 2 2 2 2 2 2 2 2 2 3 4 3 3 2 2 4 6 4 6 5 5 5 6 5 6 8 8
2 2 2 2 2 2 2 2 2 1 1 1 2 2 2 2 2 3 3 3 4 4 4 3 3 3 5 6 5 5 9 6 5 6 6 6 7 11
2 2 2 2 2 2 2 2 2 2 2 2 2 3 3 3 3 3 4 5 4 4 5 5 5 6 4 3 5 5 5 9 9 7 6 7 7 6
2 2 2 2 2 2 2 2 2 2 2 3 3 3 3 3 4 4 4 4 4 5 5 5 4 3 2 4 7 7 6 6 10 12 11 10 5 5
2 2 2 2 2 2 2 3 3 3 3 3 3 3 3 3 3 3 4 4 4 5 4 4 3 3 4 5 6 7 8 7 6 6 6 11 13 15
Wind_Direction
182 181 182 180 172 173 163 166 169 203 243 239 269 343 353 19 30 48 37 27 20 9 358 352 346 344 342 334 331 319 318 317 319 320 323 328 330 333
180 177 185 182 179 174 173 173 175 186 215 213 215 290 355 1 15 44 44 39 27 15 351 335 326 323 327 330 329 320 311 307 310 311 310 316 323 325
183 185 196 182 181 183 172 166 172 170 206 231 212 355 38 28 16 32 26 26 9 355 336 325 316 314 318 320 317 313 308 302 303 305 306 310 316 318
194 191 201 187 189 187 180 183 184 178 185 210 218 235 283 295 61 55 18 10 354 341 334 329 325 323 320 315 310 309 304 299 299 302 303 308 311 312
192 192 196 186 196 192 185 182 177 166 167 178 200 222 252 228 20 35 33 3 338 333 338 335 334 329 323 315 307 305 303 296 295 296 300 304 306 308
183 187 189 190 197 193 186 179 164 152 146 153 172 197 229 209 131 253 335 337 336 339 336 332 331 333 328 319 311 306 304 300 298 298 299 299 298 299
158 164 171 174 179 178 174 169 162 157 153 158 173 185 196 198 218 221 268 311 321 340 338 333 330 330 327 322 314 308 308 303 299 298 298 297 296 296
158 155 148 149 150 150 151 152 158 165 170 174 190 193 216 224 218 210 225 292 296 330 340 313 320 308 310 310 309 308 306 304 300 297 295 295 294 295
161 155 148 136 128 126 123 124 125 147 169 177 183 204 210 215 202 217 232 242 259 291 320 294 308 293 297 302 305 304 304 305 304 301 297 296 295 294
157 160 157 154 147 138 127 115 110 107 154 162 172 188 194 189 195 205 214 240 278 310 288 278 300 294 302 300 300 305 309 311 309 305 301 299 297 295
145 147 151 152 155 147 138 134 122 106 114 148 160 158 159 170 168 134 154 235 287 293 295 256 292 302 298 291 296 305 306 307 307 305 304 303 301 299
130 141 160 165 163 160 156 155 162 173 142 112 102 100 107 119 152 164 196 218 257 270 251 238 290 322 310 295 305 314 313 308 310 308 304 302 301 301
154 158 165 166 167 168 168 171 180 165 145 139 124 97 77 74 79 167 197 211 227 244 237 217 271 283 274 298 303 303 309 311 314 310 306 304 302 300
159 159 161 161 163 166 167 162 161 151 137 138 139 147 164 251 258 213 233 240 240 243 245 226 225 242 273 290 291 301 307 306 307 306 309 308 307 302
144 152 152 151 144 143 153 157 154 148 148 158 179 208 217 220 173 135 320 277 278 275 255 245 238 245 249 264 279 288 300 298 301 305 309 307 300 300
135 139 135 126 118 124 129 139 152 163 169 178 186 194 175 174 229 236 255 279 288 295 279 259 254 245 256 262 264 276 278 282 299 307 306 300 297 291
135 123 120 124 122 118 120 132 141 147 159 169 176 177 185 205 244 250 252 268 261 277 290 293 278 262 252 253 266 269 275 279 285 298 303 302 294 291
138 144 151 153 159 166 170 171 171 178 182 180 182 190 206 224 249 265 253 249 260 270 276 285 300 308 294 266 239 259 271 277 288 293 291 296 298 300
135 148 161 170 173 173 178 190 207 202 183 184 197 210 220 233 244 256 255 260 267 271 274 271 268 268 290 294 273 236 261 285 293 293 286 282 288 295
144 161 171 175 180 184 189 194 195 188 193 203 211 218 224 231 240 248 250 252 264 271 276 267 248 241 249 269 279 277 266 267 278 288 293 292 284 288
171 175 181 184 188 190 192 195 196 204 214 218 225 228 227 228 240 247 251 258 263 261 266 268 261 268 262 270 283 283 275 272 276 281 289 297 299 296
189 197 200 196 192 192 191 195 203 216 223 229 233 234 235 234 240 247 251 256 258 260 265 273 275 271 245 258 276 286 292 298 299 294 283 272 274 279
203 209 213 211 208 205 207 213 217 222 225 228 231 232 231 241 246 248 252 257 260 267 274 279 278 263 259 261 273 284 289 297 303 306 296 291 286 282
Height
1540 1542 1544 1546 1547 1549 1551 1552 1554 1553 1554 1555 1556 1557 1557 1558 1558 1558 1558 1558 1558 1558 1558 1558 1558 1558 1557 1557 1556 1556 1555 1554 1553 1552 1551 1550 1549 1548
1536 1538 1540 1542 1544 1545 1547 1548 1550 1550 1550 1551 1552 1553 1554 1554 1555 1555 1555 1555 1555 1555 1555 1555 1555 1554 1554 1553 1553 1552 1551 1550 1549 1548 1547 1546 1545 1544
1532 1533 1535 1538 1539 1541 1542 1544 1545 1547 1547 1547 1549 1550 1550 1551 1551 1551 1551 1551 1551 1551 1551 1551 1551 1550 1550 1550 1549 1548 1547 1547 1546 1544 1543 1542 1541 1540
1527 1529 1531 1533 1535 1537 1538 1540 1541 1543 1543 1543 1544 1546 1546 1547 1547 1548 1548 1548 1548 1548 1548 1548 1547 1547 1546 1546 1545 1544 1543 1542 1541 1540 1539 1538 1536 1535
1523 1525 1527 1529 1531 1532 1534 1536 1537 1538 1539 1540 1540 1542 1542 1543 1543 1544 1544 1544 1544 1544 1544 1544 1543 1543 1542 1542 1541 1540 1539 1538 1537 1536 1534 1533 1532 1530
1519 1521 1523 1525 1526 1528 1530 1531 1533 1534 1535 1536 1536 1537 1538 1539 1540 1540 1540 1540 1540 1540 1540 1540 1540 1539 1538 1538 1537 1536 1535 1533 1532 1531 1530 1528 1527 1526
1515 1517 1519 1521 1522 1524 1526 1527 1529 1530 1531 1531 1532 1533 1534 1535 1536 1536 1536 1536 1536 1537 1536 1536 1536 1535 1534 1533 1532 1531 1530 1529 1528 1526 1525 1523 1522 1521
1511 1513 1515 1517 1519 1520 1522 1523 1525 1526 1527 1528 1528 1529 1530 1531 1532 1532 1533 1533 1532 1533 1533 1532 1532 1531 1530 1529 1528 1527 1526 1524 1523 1522 1520 1518 1517 1515
1508 1509 1511 1513 1515 1516 1518 1519 1520 1522 1523 1525 1525 1525 1526 1527 1528 1529 1529 1529 1529 1529 1529 1527 1528 1527 1526 1525 1524 1523 1521 1520 1518 1516 1515 1513 1512 1510
1504 1506 1507 1509 1511 1512 1514 1515 1516 1518 1519 1521 1522 1522 1524 1524 1525 1526 1525 1525 1525 1525 1525 1523 1523 1522 1521 1520 1519 1518 1516 1515 1513 1511 1510 1508 1506 1504
1500 1502 1504 1505 1507 1509 1510 1511 1513 1514 1516 1517 1518 1519 1520 1521 1522 1522 1522 1521 1520 1520 1521 1520 1518 1517 1516 1515 1514 1513 1511 1510 1508 1506 1504 1502 1501 1499
1496 1498 1500 1502 1504 1505 1507 1508 1510 1511 1513 1514 1515 1516 1517 1517 1518 1518 1518 1518 1517 1516 1516 1516 1514 1513 1510 1509 1509 1508 1506 1504 1503 1501 1499 1497 1495 1492
1492 1494 1496 1498 1500 1502 1504 1505 1507 1508 1509 1510 1511 1512 1513 1514 1514 1515 1515 1514 1514 1513 1513 1512 1510 1509 1507 1504 1503 1503 1501 1499 1497 1495 1493 1492 1489 1487
1489 1491 1493 1495 1497 1499 1501 1502 1504 1505 1506 1507 1508 1509 1509 1510 1510 1511 1511 1510 1510 1509 1509 1508 1507 1505 1503 1500 1498 1497 1496 1494 1492 1489 1487 1486 1484 1482
1486 1488 1490 1492 1493 1495 1497 1498 1500 1501 1502 1503 1504 1505 1505 1506 1506 1506 1506 1506 1506 1505 1505 1504 1503 1501 1500 1497 1494 1492 1489 1488 1487 1484 1482 1480 1477 1475
1482 1484 1487 1488 1490 1491 1493 1495 1496 1497 1498 1499 1500 1501 1501 1502 1502 1502 1502 1502 1501 1500 1500 1499 1498 1497 1495 1493 1490 1487 1485 1483 1481 1479 1476 1474 1472 1470
1479 1481 1483 1484 1486 1487 1489 1490 1492 1493 1494 1495 1496 1496 1497 1497 1497 1497 1497 1497 1496 1495 1495 1494 1493 1492 1490 1488 1485 1483 1481 1478 1476 1474 1470 1467 1466 1464
1476 1477 1479 1480 1482 1483 1485 1486 1488 1489 1490 1491 1491 1492 1492 1492 1492 1493 1493 1492 1491 1490 1490 1489 1488 1486 1484 1482 1481 1478 1476 1474 1471 1469 1466 1462 1459 1458
1473 1474 1475 1477 1478 1480 1481 1483 1484 1485 1486 1487 1487 1488 1488 1488 1488 1488 1488 1487 1487 1486 1485 1484 1483 1481 1479 1476 1474 1475 1472 1468 1466 1463 1461 1457 1453 1451
1469 1470 1472 1473 1475 1476 1477 1479 1480 1481 1482 1482 1483 1483 1484 1484 1483 1483 1483 1482 1482 1481 1480 1479 1478 1477 1475 1473 1469 1468 1468 1464 1461 1457 1455 1452 1449 1446
1465 1467 1468 1469 1471 1472 1474 1475 1476 1477 1478 1478 1479 1479 1479 1479 1479 1479 1478 1478 1477 1476 1475 1474 1473 1473 1471 1468 1465 1462 1461 1460 1457 1454 1450 1446 1442 1439
1462 1463 1464 1466 1467 1468 1469 1471 1472 1472 1473 1473 1474 1474 1474 1474 1474 1474 1473 1473 1472 1471 1470 1469 1468 1467 1465 1463 1460 1457 1455 1454 1452 1450 1447 1444 1440 1435
1458 1459 1461 1462 1463 1464 1465 1466 1467 1467 1468 1468 1469 1469 1469 1469 1469 1469 1469 1468 1467 1466 1464 1463 1462 1461 1460 1458 1455 1452 1450 1448 1445 1443 1442 1440 1437 1434